Weather in Bolchary

Russia / Khanty-Mansi Autonomous Okrug — Yugra     59°48′51″N   68°48′42″E
temp.,
°C
wind,
m/s
gust,
m/s
humid.,
%
clouds,
%
prec.,
mm/h
press.,
hPa
HPBL,
m
19 april, mon
mon1923:00−12nnw25865 0.0 103191
02:00−13nw36895 0.0 1031107
05:00−13nw259282 0.0 1033106
08:00−8nnw4766100 0.0 10331319
11:00−6n5658100 0.1 10341556
14:00−4n4651100 0.1 10341733
17:00−4nnw4552100 0.1 10341400
20:00−9nw22825 0.0 103422
20 april, tue
tue2023:00−11wsw228571 0.0 103324
02:00−8sw387874 0.0 1031178
05:00−6sw51270100 0.0 1029369
08:00−3wsw6136085 0.0 1025639
11:00+2w71262100 0.0 10231057
14:00+5wnw7136396 0.0 10211169
17:00+6nw7136715 0.0 10201391
20:00+3nnw51280100 0.2 1021428
21 april, wed
wed2123:000nnw388835 0.3 1023188
02:00−2n389586 0.0 1024203
05:00−3n389396 0.0 1027267
08:000nne47745 0.0 1029623
11:00+3nne35595 0.0 10311026
14:00+5nne34535 0.0 10321206
17:00+5nne33545 0.0 10331132
20:00−1ene22833 0.0 103511
22 april, thu
thu2223:00−2se11834 0.0 103610
02:00−3s22864 0.0 103718
05:00−2s23885 0.0 103853
08:00+3s35685 0.0 1039325
11:00+7s45535 0.0 10381036
14:00+9s45475 0.0 10381433
17:00+10s464912 0.0 10371392
20:00+5sse48715 0.0 1038116
23 april, fri
fri2323:00+4sse412745 0.0 1038245
02:00+2sse412743 0.0 1037261
05:00+2sse411765 0.0 1038236
08:00+6s612645 0.0 1038406
11:00+11s69485 0.0 1037858
14:00+14s68431 0.0 10361501
17:00+14s57445 0.0 10361770
20:00+9sse410625 0.0 1036213